Regional Weather Roundup
Issued by NWS

Home | Current Version | Previous Version | Graphics & Text | Print | Product List | Glossary On
Versions: 1 2 3 4 5 6 7 8 9 10 11 12 13 14 15 16 17 18 19 20 21 22 23 24 25 26 27 28 29 30 31 32 33 34 35 36 37 38 39 40 41 42 43 44 45 46 47 48 49 50
271
ASUS44 KJAN 291003
RWRMS

MISSISSIPPI HOURLY WEATHER ROUNDUP
NATIONAL WEATHER SERVICE JACKSON MS
500 AM CDT MON SEP 29 2014

NOTE: "FAIR: INDICATES FEW OR NO CLOUDS BELOW 12,000 FEET WITH NO
SIGNIFICANT WEATHER AND/OR OBSTRUCTIONS TO VISIBILITY.

MSZ001>002-007>008-010>013-018>021-025>028-034>036-291100-
NORTHWEST MISSISSIPPI

CITY           SKY/WX    TMP DP  RH WIND       PRES   REMARKS
CLARKSDALE     FAIR      63  63 100 N6        30.00S
CLEVELAND      FAIR      68  66  93 CALM      29.98S
GREENWOOD      PTCLDY    69  65  86 CALM      29.97F
GREENVILLE     MOCLDY    70  64  81 NE3       29.97S
GRENADA        FAIR      64  63  94 CALM      29.99S
OLIVE BRANCH   CLEAR     61 N/A N/A CALM      30.02S
OXFORD         FAIR      63  59  88 CALM      30.01S
TUNICA         SUNNY     59  57  94 CALM      30.01S
$$

MSZ003>006-009-014>017-022>024-029>033-037>039-291100-
NORTHEAST MISSISSIPPI

CITY           SKY/WX    TMP DP  RH WIND       PRES   REMARKS
COLUMBUS AFB   MOCLDY    71  67  89 NE2       29.99R
CORINTH        FOG       59  59 100 CALM      30.01S VSB 1/4
GOLDN TRIANGLE CLOUDY    72  64  78 NE5       29.98S
STARKVILLE     CLOUDY    70  68  94 CALM      29.98S
TUPELO         PTCLDY    66  63  90 NE5       29.99F
$$

MSZ040-058-291100-
CENTRAL MISSISSIPPI

CITY           SKY/WX    TMP DP  RH WIND       PRES   REMARKS
JACKSON INTL   CLOUDY    73  69  87 NE3       29.95S
JACKSON HAWKNS CLOUDY    74  69  85 NE3       29.96S
MERIDIAN KEY   CLOUDY    72  68  87 NE5       29.96S
MERIDIAN NAS   MOCLDY    70  67  90 CALM      29.97S
RAYMOND        FAIR      72  66  83 CALM      29.95S
VICKSBURG      MOCLDY    72  69  90 NE5       29.95S
$$

MSZ059>079-291100-
SOUTH MISSISSIPPI

CITY           SKY/WX    TMP DP  RH WIND       PRES   REMARKS
BROOKHAVEN     CLOUDY    72  72 100 CALM      29.96S FOG
COLUMBIA       CLOUDY    72  72 100 CALM      29.92S
HATTIESBURG    CLOUDY    73  71  93 E3        29.94S
MCCOMB         CLOUDY    73  70  90 NE5       29.93S
NATCHEZ        MOCLDY    72  70  94 NE5       29.94S
PINE BELT      CLOUDY   N/A N/A N/A N5        29.95S
$$

MSZ080>082-291100-
COASTAL MISSISSIPPI

CITY           SKY/WX    TMP DP  RH WIND       PRES   REMARKS
BILOXI         MOCLDY    73  73 100 NE6       29.89F
PASCAGOULA     CLOUDY    73  71  93 N5        29.89F
GULFPORT       CLOUDY    73  72  96 N6        29.89F
$$



USA.gov is the U.S. government's official web portal to all federal, state and local government web resources and services.